Location: Unspecified
(0.0000°N, 0.0000°E)
Time: 19:03:46
(UTC+00:00)

Vanguard 2 Rocket - Pass Details

Date: 27 November 2019
Orbit: 554 x 3326 km, 32.9° (Epoch: 09 December)

Event Time Altitude Azimuth Distance (km) Brightness Sun altitude
Rises 08:03:30 0° 281° (W) 4,590 10.0 31.5°
Reaches altitude 10° 08:06:17 10° 274° (W) 3,929 9.7 32.1°
Maximum altitude 08:16:40 42° 206° (SSW) 3,084 10.0 34.4°
Drops below altitude 10° 08:33:10 10° 141° (SE) 6,062 12.1 38.1°
Sets 08:38:54 0° 134° (SE) 7,258 12.3 39.4°
